Kentucky Observed Data For Previous 48 Hours

Caption
Day and Hour Reservoir Elevation (behind dam)* Tailwater Elevation (below dam)* Average Hourly Discharge*
7/17/2019 1 AM CDT 359.40 311.83 65,764
7/17/2019 2 AM CDT 359.39 311.86 65,751
7/17/2019 3 AM CDT 359.39 311.91 65,865
7/17/2019 4 AM CDT 359.39 311.95 65,869
7/17/2019 5 AM CDT 359.38 311.91 65,839
7/17/2019 6 AM CDT 359.36 311.89 65,848
7/17/2019 7 AM CDT 359.34 311.94 66,017
7/17/2019 8 AM CDT 359.33 312.05 66,201
7/17/2019 9 AM CDT 359.30 311.95 66,214
7/17/2019 10 AM CDT 359.29 311.82 66,057
7/17/2019 11 AM CDT 359.30 311.86 65,656
7/17/2019 12 PM CDT 359.30 311.74 65,541
7/17/2019 1 PM CDT 359.28 311.88 65,391
7/17/2019 2 PM CDT 359.29 311.98 72,888
7/17/2019 3 PM CDT 359.28 311.92 75,281
7/17/2019 4 PM CDT 359.31 311.87 75,198
7/17/2019 5 PM CDT 359.32 311.82 74,942
7/17/2019 6 PM CDT 359.30 311.73 74,886
7/17/2019 7 PM CDT 359.30 311.74 74,849
7/17/2019 8 PM CDT 359.29 311.74 74,927
7/17/2019 9 PM CDT 359.21 311.82 75,066
7/17/2019 10 PM CDT 359.22 311.80 75,250
7/17/2019 11 PM CDT 359.17 311.72 74,825
7/18/2019 12 AM CDT 359.23 311.52 74,573
7/18/2019 1 AM CDT 359.20 311.46 74,835
7/18/2019 2 AM CDT 359.26 311.55 74,644
7/18/2019 3 AM CDT 359.30 311.43 74,678
7/18/2019 4 AM CDT 359.34 311.39 74,689
7/18/2019 5 AM CDT 359.27 311.44 74,880
7/18/2019 6 AM CDT 359.29 311.39 74,689
7/18/2019 7 AM CDT 359.29 311.16 74,793
7/18/2019 8 AM CDT 359.23 311.09 70,218
7/18/2019 9 AM CDT 359.23 311.10 65,925
7/18/2019 10 AM CDT 359.28 311.11 74,514
7/18/2019 11 AM CDT 359.29 310.97 74,486
7/18/2019 12 PM CDT 359.30 310.97 74,422
7/18/2019 1 PM CDT 359.30 310.93 74,368
7/18/2019 2 PM CDT 359.28 310.94 74,331
7/18/2019 3 PM CDT 359.29 310.91 74,223
7/18/2019 4 PM CDT 359.32 310.97 74,124
7/18/2019 5 PM CDT 359.31 310.83 74,299
7/18/2019 6 PM CDT 359.35 310.79 74,193
7/18/2019 7 PM CDT 359.36 310.74 74,180
7/18/2019 8 PM CDT 359.39 310.78 74,292
7/18/2019 9 PM CDT 359.41 310.91 74,451
7/18/2019 10 PM CDT 359.44 310.69 74,540
7/18/2019 11 PM CDT 359.39 310.64 74,612
7/19/2019 12 AM CDT 359.36 310.70 74,544
7/19/2019 1 AM CDT 359.33 310.75 74,581
7/19/2019 2 AM CDT 359.33 310.67 74,646
7/19/2019 3 AM CDT 359.33 310.57 74,573
7/19/2019 4 AM CDT 359.35 310.60 74,586
7/19/2019 5 AM CDT 359.36 310.56 74,616

Elevations are in feet above sea level. Discharges are in cubic feet per second and are reported at the end of the hour.